SCP
0 0 0 0 0 0 0 0 0 0 0 0 0 0 0 0 0 0 0 0 0 0 0 0 0 0 0 0 0 0 0 0 1 1 1 0 0 0
0 0 0 0 0 0 0 0 0 0 0 0 0 0 0 0 0 0 0 0 0 0 0 0 0 0 0 0 0 0 0 0 0 0 1 1 1 0
0 0 0 0 0 0 0 0 0 0 0 0 0 0 0 0 0 0 0 0 0 0 0 0 0 0 0 0 0 0 0 0 0 0 0 1 1 1
0 0 0 0 0 0 0 0 0 0 0 0 0 0 0 0 0 0 0 0 0 0 0 0 0 0 0 0 0 0 0 0 0 0 0 0 0 1
0 0 0 0 0 0 0 0 0 0 0 0 0 0 0 0 0 0 0 0 0 0 0 0 0 0 0 0 0 0 0 0 0 0 0 0 0 0
0 0 0 0 0 0 0 0 0 0 0 0 0 0 0 0 0 0 0 0 0 0 0 0 0 0 0 0 0 0 0 0 0 0 0 0 0 0
0 0 0 0 0 0 0 0 0 0 0 0 0 0 0 0 0 0 0 0 0 0 0 0 0 0 0 0 0 0 0 0 0 0 0 0 0 0
0 0 0 0 0 0 0 0 0 0 0 0 0 0 0 0 0 0 0 0 0 0 0 0 0 0 0 0 0 0 0 0 0 0 0 0 0 0
0 0 0 0 0 0 0 0 0 0 0 0 0 0 0 0 0 0 0 0 0 0 0 0 0 0 0 0 0 0 0 0 0 0 0 0 0 0
0 0 0 0 0 0 0 0 0 0 0 0 0 0 0 0 0 0 0 0 0 0 0 0 0 0 0 0 0 0 0 0 0 0 0 0 0 0
0 0 0 0 0 0 0 0 0 0 0 0 0 0 0 0 0 0 0 0 0 0 0 0 0 0 0 0 0 0 0 0 0 0 0 0 0 0
0 0 0 0 0 0 0 0 0 0 0 0 0 0 0 0 0 0 0 0 0 0 0 0 0 0 0 0 0 0 0 0 0 0 0 0 0 0
0 0 0 0 0 0 0 0 0 0 0 0 0 0 0 0 0 0 0 0 0 0 0 0 0 0 0 0 0 0 0 0 0 0 0 0 0 0
0 0 0 0 0 0 0 0 0 0 0 0 0 0 0 0 0 0 0 0 0 0 0 0 0 0 0 0 0 0 0 0 0 0 0 0 0 0
0 0 0 0 0 0 0 0 0 0 0 0 0 0 0 0 0 0 0 0 0 0 0 0 0 0 0 0 0 0 0 0 0 0 0 0 0 0
0 0 0 0 0 0 0 0 0 0 0 0 0 0 0 0 0 0 0 0 0 0 0 0 0 0 0 0 0 0 0 0 0 0 0 0 0 0
0 0 0 0 0 0 0 0 0 0 0 0 0 0 0 0 0 0 0 0 0 0 0 0 0 0 0 0 0 0 0 0 0 0 0 0 0 0
0 0 0 0 0 0 0 0 0 0 0 0 0 0 0 0 0 0 0 0 0 0 0 0 0 0 0 0 0 0 0 0 0 0 0 0 0 0
0 0 0 0 0 0 0 0 0 0 0 0 0 0 0 0 0 0 0 0 0 0 0 0 0 0 0 0 0 0 0 0 0 0 0 0 0 0
0 0 0 0 0 0 0 0 0 0 0 0 0 0 0 0 0 0 0 0 0 0 0 0 0 0 0 0 0 0 0 0 0 0 0 0 0 0
0 0 0 0 0 0 0 0 0 0 0 0 0 0 0 0 0 0 0 0 0 0 0 0 0 0 0 0 0 0 0 0 0 0 0 0 0 0
0 0 0 0 0 0 0 0 0 0 0 0 0 0 0 0 0 0 0 0 0 0 0 0 0 0 0 0 0 0 0 0 0 0 0 0 0 0
0 0 0 0 0 0 0 0 0 0 0 0 0 0 0 0 0 0 0 0 0 0 0 0 0 0 0 0 0 0 0 0 0 0 0 0 0 0
Wind_Speed
3 3 3 2 3 3 3 3 4 4 3 2 2 1 2 2 2 5 6 5 7 8 9 10 11 12 13 13 14 15 15 15 15 16 16 17 17 17
2 4 3 3 2 2 3 3 4 5 4 2 2 2 2 3 3 5 6 4 8 9 10 10 11 12 13 13 13 14 14 14 15 16 16 16 16 16
3 3 3 4 3 3 3 3 4 4 6 5 3 3 4 5 3 4 5 6 6 10 10 10 11 12 13 13 14 14 14 15 16 16 17 17 17 17
4 3 3 2 4 4 3 4 4 4 5 6 5 4 6 5 5 5 5 5 6 6 9 10 11 11 12 13 13 14 14 15 15 16 17 18 18 18
4 4 4 4 4 3 4 4 4 4 5 5 6 5 5 5 5 6 6 5 6 5 8 10 11 11 11 12 13 14 14 15 15 16 16 17 17 18
3 3 4 4 4 4 4 4 4 5 5 5 5 5 5 5 5 5 5 5 5 5 6 6 8 10 12 13 13 14 14 15 15 16 16 16 16 17
4 3 3 3 5 5 5 5 5 5 4 4 5 5 5 4 4 4 5 5 6 5 5 5 6 7 8 12 14 14 14 14 15 15 15 15 16 17
4 4 3 4 4 6 6 7 7 7 6 5 5 6 6 5 5 5 5 5 5 3 4 6 5 7 7 8 8 11 13 14 14 15 15 16 16 17
5 5 3 3 4 5 5 8 8 9 9 8 8 7 7 6 6 7 6 7 7 5 5 7 6 7 7 7 9 11 12 13 14 15 15 16 16 17
6 6 6 5 3 5 6 6 6 5 5 7 7 7 7 6 6 7 7 7 8 6 5 7 7 7 6 6 9 12 13 13 14 15 15 15 15 16
6 6 6 6 0 3 6 6 6 5 4 7 8 9 10 9 8 6 6 6 6 6 5 6 6 6 6 7 7 11 13 13 14 14 15 15 15 14
5 5 4 5 2 3 6 6 6 5 5 5 6 8 9 8 9 9 7 6 6 5 4 5 6 4 5 5 5 5 8 12 14 15 15 15 14 11
5 4 2 4 4 5 7 6 5 7 7 6 5 5 5 5 5 6 6 6 6 6 4 4 5 5 5 5 5 5 6 6 7 9 12 15 15 13
5 4 0 3 3 4 4 4 5 6 5 4 4 5 4 4 4 5 6 6 7 8 7 6 5 5 6 7 7 5 5 6 6 6 6 9 12 16
3 3 3 1 4 4 1 3 5 4 3 4 4 4 4 5 5 5 6 6 7 7 7 8 7 6 6 7 7 7 6 6 6 6 6 6 7 7
3 3 4 2 2 2 2 2 2 3 4 4 4 4 4 4 4 4 5 4 5 5 5 7 7 8 7 8 8 8 8 6 5 6 6 7 7 7
1 1 1 1 0 1 2 2 3 3 3 3 4 4 5 5 5 4 4 4 5 5 5 4 5 6 8 8 8 9 8 8 7 7 7 7 7 8
0 1 1 2 2 2 3 3 3 4 4 4 4 4 5 5 5 5 4 5 5 5 6 5 5 5 5 6 9 10 8 8 7 7 7 8 9 8
2 3 3 3 3 3 3 3 4 4 4 4 4 5 5 5 5 5 5 5 6 6 6 5 5 5 6 7 6 7 8 7 7 7 7 8 9 8
4 3 3 3 3 3 3 4 4 4 4 4 5 5 5 6 6 6 6 7 7 7 7 6 5 5 6 8 7 7 9 9 7 8 7 7 8 8
3 3 3 3 3 3 3 3 3 4 5 5 5 6 6 6 6 7 7 8 8 7 8 7 7 8 8 6 7 8 7 8 9 8 7 7 7 7
3 3 3 3 3 3 3 3 4 4 5 5 5 6 6 6 7 8 8 8 7 8 9 8 8 7 6 7 9 10 10 8 8 11 12 10 7 7
3 2 2 3 3 3 3 4 5 4 5 5 6 6 7 7 7 7 8 8 8 9 9 9 8 8 8 8 9 9 12 11 7 7 8 10 13 14
Wind_Direction
316 307 300 306 293 289 282 276 280 273 258 224 218 211 243 258 231 249 250 196 215 228 230 230 228 225 225 226 227 224 222 220 218 215 215 217 218 217
306 303 307 303 306 290 278 273 271 279 274 265 252 256 267 266 235 261 258 218 227 229 231 233 231 229 227 227 226 223 222 221 219 217 216 217 218 217
298 296 297 308 296 288 279 270 264 264 269 272 267 269 264 266 259 264 261 248 234 214 223 230 232 232 231 230 226 222 221 221 221 220 218 217 218 216
311 301 294 291 290 287 283 276 272 268 269 277 276 274 275 277 276 269 262 250 252 215 216 228 232 233 232 231 229 225 223 221 220 220 220 220 220 218
307 301 299 295 284 281 276 278 277 272 268 271 277 280 273 271 274 267 259 254 254 233 219 223 227 231 234 233 231 229 226 222 221 220 220 221 220 220
294 293 294 293 293 294 282 279 280 277 271 268 271 275 272 273 270 269 265 253 253 250 240 235 229 230 232 231 231 229 227 225 223 221 220 220 220 220
285 286 296 309 316 303 301 298 288 278 274 273 275 280 277 275 274 277 274 275 264 251 253 246 238 238 231 225 226 227 225 225 224 222 220 220 220 220
281 285 273 243 247 249 264 284 291 286 286 278 276 274 280 279 278 274 273 273 272 251 259 261 248 247 243 240 223 216 220 223 224 224 222 220 220 221
281 280 275 272 266 275 248 240 247 239 252 276 278 277 282 284 283 278 272 271 270 277 278 270 258 253 248 242 216 217 222 224 224 224 224 223 222 222
264 268 270 274 274 294 289 283 280 263 250 253 270 282 288 290 281 279 283 282 278 266 252 264 267 264 261 252 216 215 223 225 225 226 225 224 223 224
255 258 267 272 230 279 278 281 284 282 241 239 264 277 286 279 274 271 264 264 272 270 248 255 269 273 269 259 234 213 222 228 229 229 228 226 223 224
252 244 221 264 307 263 274 281 284 294 300 281 259 254 260 253 239 248 257 261 268 273 250 247 265 271 272 257 251 238 230 228 226 228 229 227 221 224
263 255 227 184 256 267 274 285 307 310 296 291 291 289 281 275 261 255 253 256 262 263 269 263 268 265 263 275 274 263 257 250 235 233 229 226 221 218
271 273 246 130 259 272 276 312 310 289 280 286 288 289 291 291 288 283 274 264 262 267 272 267 263 265 267 271 274 270 259 256 252 248 244 226 222 222
278 28 39 76 261 238 224 298 284 275 289 293 297 303 305 306 304 297 286 275 272 266 261 256 254 257 257 261 270 273 275 268 253 248 247 241 235 229
225 162 170 181 252 322 309 277 301 329 323 310 311 309 309 305 299 297 295 295 286 281 265 258 254 251 254 257 262 267 266 265 263 257 255 252 245 235
303 158 122 114 50 9 357 355 347 343 334 328 322 322 321 318 315 315 307 303 296 299 302 295 276 265 260 263 264 263 264 263 259 259 257 256 252 244
61 108 78 49 29 14 2 357 358 354 346 338 334 332 327 325 323 321 315 311 306 301 299 300 300 288 271 256 240 259 263 264 264 257 252 255 258 250
79 70 59 44 29 19 8 360 359 357 347 343 341 340 334 330 327 324 322 319 314 311 309 305 300 294 291 290 271 236 262 272 271 264 257 253 259 260
63 59 51 42 32 21 13 4 358 353 348 345 344 344 340 334 332 330 328 328 320 314 310 308 305 303 295 294 292 280 250 260 267 268 267 265 264 263
63 57 47 36 26 22 12 360 354 349 347 342 345 344 340 334 332 330 327 327 318 314 314 312 313 307 296 291 283 280 275 247 252 262 269 268 267 261
60 56 46 28 15 9 360 348 342 344 344 342 341 337 333 329 326 325 324 323 321 319 317 314 315 310 298 290 290 293 294 290 262 248 247 249 256 255
48 38 28 14 5 355 347 342 340 339 339 335 331 328 326 323 321 318 318 317 317 317 317 315 314 310 304 297 293 293 293 294 288 276 260 244 244 254